Notices

What's New in latest Release from April 7th, 2021:

- Updated Glossary, including Speed of Maximum Gust, and Total Hourly Precipitation

- Updated national and regional climate services offices contacts and prices information

- Addition of station inventory lists for 1981-2010, 1971-2000, and 1961-1990 Normals.

Please note that as of June 10, 2021 UTC dates are available for all years 2004-present, and DBA is working on populating the remaining years (2003 to 1953).

If you haven't already, please take our survey and provide feedback about our website: https://eccc.sondage-survey.ca/f/LanguageSelection.aspx?s=442ca660-fcf1-47c0-95a9-59707d6fd709

Hourly Data Report for February 28, 2017

TORONTO CITY
ONTARIO

43°40'00.000" N
79°24'00.000" W
112.50 m
6158355
71508
XTO

Download Data

Hourly Data (February 2017)
Hourly Data Report for February 28, 2017
TIME
LST
Temp Definition
°C
Dew Point Definition
°C
Rel Hum Definition
%
Precip. Amount Definition
mm

Wind Dir Definition
10's deg

Wind Spd Definition
km/h
Visibility Definition
km
Stn Press Definition
kPa
Hmdx Definition


Wind Chill Definition


Weather Definition


00:00 4.3 -1.7 65 0.0 LegendMM LegendMM   101.10     LegendNANA
01:00 4.0 -1.0 70 0.0 LegendMM LegendMM   101.11     LegendNANA
02:00 3.9 -0.7 72 0.0 LegendMM LegendMM   101.09     LegendNANA
03:00 3.9 -0.6 72 0.0 LegendMM LegendMM   101.09     LegendNANA
04:00 3.9 -0.5 73 0.0 LegendMM LegendMM   101.09     LegendNANA
05:00 3.5 -0.8 74 0.0 LegendMM LegendMM   101.02     LegendNANA
06:00 3.7 -0.9 72 0.0 LegendMM LegendMM   100.98     LegendNANA
07:00 3.3 0.1 79 0.0 LegendMM LegendMM   100.94     LegendNANA
08:00 3.5 0.6 81 0.0 LegendMM LegendMM   100.91     LegendNANA
09:00 4.7 0.9 76 0.0 LegendMM LegendMM   100.88     LegendNANA
10:00 6.0 1.4 73 0.0 LegendMM LegendMM   100.81     LegendNANA
11:00 6.4 1.6 71 0.0 LegendMM LegendMM   100.64     LegendNANA
12:00 6.4 1.6 72 0.0 LegendMM LegendMM   100.54     LegendNANA
13:00 6.4 1.9 73 0.0 LegendMM LegendMM   100.42     LegendNANA
14:00 6.9 2.2 72 0.0 LegendMM LegendMM   100.16     LegendNANA
15:00 6.4 2.4 75 0.0 LegendMM LegendMM   100.06     LegendNANA
16:00 7.0 2.7 74 0.0 LegendMM LegendMM   99.94     LegendNANA
17:00 7.3 2.8 73 0.0 LegendMM LegendMM   99.85     LegendNANA
18:00 7.5 2.9 73 0.0 LegendMM LegendMM   99.75     LegendNANA
19:00 8.2 3.0 70 0.0 LegendMM LegendMM   99.63     LegendNANA
20:00 9.0 4.0 71 0.0 LegendMM LegendMM   99.52     LegendNANA
21:00 8.7 5.4 80 0.0 LegendMM LegendMM   99.51     LegendNANA
22:00 9.9 6.3 78 0.0 LegendMM LegendMM   99.35     LegendNANA
23:00 9.9 6.4 79 0.0 LegendMM LegendMM   99.24     LegendNANA

Notes on Data Quality.

Legend

  • E = Estimated
  • M = Missing
  • NA = Not Available*
  • [empty] = Indicates an unobserved value
Date modified: